Weather History for Greensboro, NC

Change the Weather History Date:

Tuesday, September 11, 2012

  Actual Average Record
Temperature  
Mean Temperature 66 °F 72 °F  
Max Temperature 78 °F 81 °F 96 °F (1983)
Min Temperature 54 °F 63 °F 45 °F (1917)
Degree Days  
Heating Degree Days 0 0  
Month to date heating degree days 0 0  
Since 1 July heating degree days 0 1  
Cooling Degree Days 1 7  
Month to date cooling degree days 122 95  
Year to date cooling degree days 1541 1357  
Growing Degree Days 16 (Base 50)    
Moisture  
Dew Point 52 °F    
Average Humidity 63    
Maximum Humidity 86    
Minimum Humidity 39    
Precipitation  
Precipitation 0.00 in 0.14 in 1.10 in (1965)
Month to date precipitation 1.42 1.67  
Year to date precipitation 28.16 30.46  
Sea Level Pressure  
Sea Level Pressure 30.25 in    
Wind  
Wind Speed 3 mph (ENE)    
Max Wind Speed 9 mph    
Max Gust Speed 13 mph    
Visibility 10 miles    
Events      
T = Trace of Precipitation, MM = Missing Value Source: NWS Daily Summary

Daily Weather History Graph

Daily Weather History Graph

Search for Another Location

Airport:

Trip Planner

Search our weather history database for the weather conditions in past years. The results will help you decide how hot, cold, wet, or windy it might be!

Date:

Astronomy

Sep. 11, 2012 Rise Set
Actual Time 6:59 AM EDT 7:32 PM EDT
Civil Twilight 6:33 AM EDT 7:58 PM EDT
Nautical Twilight 6:03 AM EDT 8:28 PM EDT
Astronomical Twilight 5:32 AM EDT 8:59 PM EDT
Moon 2:22 AM EDT (9/11) 4:35 PM EDT (9/11)
Length of Visible Light 13h 24m
Length of Day
12h 32m
Waning Crescent, 21% of the Moon is Illuminated
Sep 11
Waning Crescent
Sep 15
New
Sep 22
First Quarter
Sep 29
Full
Oct 8
Last Quarter

Hourly Weather History & Observations

Time (EDT) Temp. Dew Point Humidity Pressure Visibility Wind Dir Wind Speed Gust Speed Precip Events Conditions
12:54 AM 62.1 °F 54.0 °F 75% 30.18 in 10.0 mi Calm Calm - N/A   Clear
1:54 AM 60.1 °F 53.1 °F 78% 30.18 in 10.0 mi Calm Calm - N/A   Clear
2:54 AM 59.0 °F 53.1 °F 81% 30.18 in 10.0 mi Calm Calm - N/A   Clear
3:54 AM 57.0 °F 53.1 °F 87% 30.19 in 10.0 mi NNE 3.5 mph - N/A   Clear
4:54 AM 57.0 °F 53.1 °F 87% 30.21 in 10.0 mi NE 4.6 mph - N/A   Scattered Clouds
5:54 AM 55.9 °F 52.0 °F 87% 30.22 in 10.0 mi Calm Calm - N/A   Clear
6:54 AM 55.0 °F 52.0 °F 89% 30.25 in 10.0 mi Calm Calm - N/A   Partly Cloudy
7:54 AM 57.9 °F 52.0 °F 81% 30.27 in 10.0 mi Calm Calm - N/A   Clear
8:54 AM 62.1 °F 53.1 °F 72% 30.29 in 10.0 mi ENE 4.6 mph - N/A   Clear
9:54 AM 68.0 °F 50.0 °F 52% 30.30 in 10.0 mi East 5.8 mph - N/A   Clear
10:54 AM 70.0 °F 48.0 °F 46% 30.31 in 10.0 mi East 5.8 mph - N/A   Partly Cloudy
11:54 AM 71.1 °F 46.9 °F 42% 30.31 in 10.0 mi Calm Calm - N/A   Clear
12:54 PM 73.0 °F 48.9 °F 42% 30.30 in 10.0 mi ESE 5.8 mph - N/A   Partly Cloudy
1:54 PM 73.9 °F 50.0 °F 43% 30.28 in 10.0 mi Calm Calm - N/A   Scattered Clouds
2:54 PM 75.9 °F 51.1 °F 42% 30.26 in 10.0 mi Variable 4.6 mph - N/A   Partly Cloudy
3:54 PM 77.0 °F 51.1 °F 40% 30.24 in 10.0 mi Variable 4.6 mph - N/A   Scattered Clouds
4:54 PM 78.1 °F 52.0 °F 40% 30.24 in 10.0 mi NNE 3.5 mph - N/A   Scattered Clouds
5:54 PM 77.0 °F 52.0 °F 42% 30.24 in 10.0 mi Variable 3.5 mph - N/A   Scattered Clouds
6:54 PM 73.0 °F 54.0 °F 51% 30.24 in 10.0 mi East 5.8 mph - N/A   Scattered Clouds
7:54 PM 70.0 °F 54.0 °F 57% 30.25 in 10.0 mi ESE 5.8 mph - N/A   Partly Cloudy
8:54 PM 68.0 °F 55.0 °F 63% 30.27 in 10.0 mi SE 3.5 mph - N/A   Clear
9:54 PM 66.9 °F 55.0 °F 66% 30.27 in 10.0 mi Calm Calm - N/A   Clear
10:54 PM 66.9 °F 54.0 °F 63% 30.28 in 10.0 mi Calm Calm - N/A   Clear
11:54 PM 64.0 °F 55.0 °F 73% 30.29 in 10.0 mi Calm Calm - N/A   Clear